TELSTAR 19V

Last updated on Thu Nov 21 2024 00:02:44 GMT+0000 (Coordinated Universal Time)

1 43562U 18059A 24325.28272427 -.00000278 00000+0 00000+0 0 9999 2 43562 0.0262 192.3682 0002181 0.1030 266.1145 1.00270789 23395
UTC large
Height (km)
Speed (km/s)
/
Latitude / Longitude
Inclination (degrees)
Orbital Period (minutes)
Azimuth
Elevation
Range (km)
Doppler Factor

Next 0 passes for location: London (51.5072 / 0.1276)

Sorry there are no passes over London.